Weather History for Glenwood, MN

Change the Weather History Date:

Thursday, May 9, 2013

  Actual Average Record
Temperature  
Mean Temperature 52 °F -  
Max Temperature 60 °F 67 °F 87 °F (1987)
Min Temperature 42 °F 40 °F 26 °F (1966)
Degree Days  
Heating Degree Days 13    
Growing Degree Days 2 (Base 50)    
Moisture  
Dew Point 47 °F    
Average Humidity 81    
Maximum Humidity 100    
Minimum Humidity 63    
Precipitation  
Precipitation 0.06 in - - ()
Sea Level Pressure  
Sea Level Pressure 30.07 in    
Wind  
Wind Speed 9 mph (NE)    
Max Wind Speed 22 mph    
Max Gust Speed 25 mph    
Visibility 9 miles    
Events Rain    
Averages and records for this station are not official NWS values.
T = Trace of Precipitation, MM = Missing Value Source: NWS Daily Summary

Daily Weather History Graph

Daily Weather History Graph

Search for Another Location

Airport:

Trip Planner

Search our weather history database for the weather conditions in past years. The results will help you decide how hot, cold, wet, or windy it might be!

Date:

Astronomy

May. 09, 2013 Rise Set
Actual Time 5:57 AM CDT 8:38 PM CDT
Civil Twilight 5:23 AM CDT 9:12 PM CDT
Nautical Twilight 4:40 AM CDT 9:56 PM CDT
Astronomical Twilight 3:50 AM CDT 10:46 PM CDT
Moon 5:44 AM CDT (5/9) 8:34 PM CDT (5/9)
Length of Visible Light 15h 49m
Length of Day
14h 41m
Waning Crescent, 0% of the Moon is Illuminated
May 9
Waning Crescent
May 9
New
May 17
First Quarter
May 24
Full
May 31
Last Quarter

Hourly Weather History & Observations

Time (CDT) Temp. Windchill Dew Point Humidity Pressure Visibility Wind Dir Wind Speed Gust Speed Precip Events Conditions
12:13 AM 53.6 °F - 51.8 °F 94% 30.04 in 10.0 mi NE 6.9 mph - 0.01 in Rain Rain
12:33 AM 53.6 °F - 51.8 °F 94% 30.03 in 10.0 mi NNE 9.2 mph - 0.01 in   Light Drizzle
12:54 AM 53.6 °F - 51.8 °F 94% 30.04 in 10.0 mi North 5.8 mph - 0.01 in   Light Drizzle
1:13 AM 53.6 °F - 51.8 °F 94% 30.04 in 7.0 mi ENE 4.6 mph - N/A Rain Light Rain
1:33 AM 53.6 °F - 51.8 °F 94% 30.04 in 5.0 mi NE 5.8 mph - N/A   Light Drizzle
1:54 AM 53.6 °F - 51.8 °F 94% 30.03 in 4.0 mi NE 3.5 mph - N/A Rain Rain
2:13 AM 53.6 °F - 51.8 °F 94% 30.02 in 5.0 mi NNE 4.6 mph - N/A   Light Drizzle
2:33 AM 53.6 °F - 51.8 °F 94% 30.03 in 5.0 mi NNE 4.6 mph - 0.01 in   Overcast
2:54 AM 53.6 °F - 51.8 °F 94% 30.02 in 4.0 mi NNE 5.8 mph - 0.01 in   Light Drizzle
3:13 AM 53.6 °F - 51.8 °F 94% 30.02 in 4.0 mi NNE 4.6 mph - N/A   Light Drizzle
3:33 AM 53.6 °F - 51.8 °F 94% 30.03 in 5.0 mi North 5.8 mph - N/A   Overcast
3:54 AM 53.6 °F - 51.8 °F 94% 30.02 in 4.0 mi North 5.8 mph - N/A   Overcast
4:33 AM 53.6 °F - 51.8 °F 94% 30.02 in 7.0 mi North 6.9 mph - N/A   Overcast
4:54 AM 53.6 °F - 51.8 °F 94% 30.02 in 10.0 mi North 8.1 mph - N/A   Drizzle
5:13 AM 53.6 °F - 51.8 °F 94% 30.02 in 10.0 mi North 8.1 mph - N/A   Drizzle
5:33 AM 51.8 °F - 51.8 °F 100% 30.02 in 10.0 mi North 9.2 mph - N/A   Light Drizzle
5:54 AM 51.8 °F - 50.0 °F 94% 30.02 in 10.0 mi North 8.1 mph - 0.01 in Rain Rain
6:13 AM 51.8 °F - 48.2 °F 88% 30.03 in 10.0 mi North 10.4 mph - 0.01 in Rain Light Rain
6:34 AM 51.8 °F - 48.2 °F 88% 30.04 in 10.0 mi North 8.1 mph - 0.02 in Rain Rain
6:53 AM 50.0 °F - 48.2 °F 94% 30.04 in 10.0 mi North 8.1 mph - 0.02 in Rain Rain
7:13 AM 50.0 °F - 48.2 °F 94% 30.04 in 10.0 mi NNE 8.1 mph - 0.01 in   Drizzle
7:34 AM 48.2 °F - 46.4 °F 93% 30.04 in 10.0 mi North 8.1 mph - 0.01 in   Light Drizzle
7:53 AM 50.0 °F - 48.2 °F 94% 30.05 in 10.0 mi North 10.4 mph - 0.01 in   Mostly Cloudy
8:13 AM 50.0 °F - 46.4 °F 87% 30.05 in 10.0 mi North 9.2 mph - N/A   Scattered Clouds
8:34 AM 48.2 °F - 46.4 °F 93% 30.06 in 10.0 mi North 9.2 mph - N/A   Mostly Cloudy
8:53 AM 50.0 °F - 46.4 °F 87% 30.06 in 10.0 mi North 10.4 mph - N/A   Mostly Cloudy
9:13 AM 50.0 °F - 46.4 °F 87% 30.06 in 10.0 mi North 11.5 mph - N/A   Mostly Cloudy
9:34 AM 51.8 °F - 46.4 °F 82% 30.06 in 10.0 mi North 10.4 mph - N/A   Mostly Cloudy
9:53 AM 51.8 °F - 46.4 °F 82% 30.06 in 10.0 mi NNE 10.4 mph - N/A   Mostly Cloudy
10:34 AM 55.4 °F - 50.0 °F 82% 30.07 in 10.0 mi NNE 12.7 mph - N/A   Scattered Clouds
10:53 AM 55.4 °F - 50.0 °F 82% 30.08 in 10.0 mi NNE 11.5 mph - N/A   Scattered Clouds
11:13 AM 57.2 °F - 50.0 °F 77% 30.07 in 10.0 mi NNE 12.7 mph - N/A   Scattered Clouds
11:34 AM 57.2 °F - 51.8 °F 82% 30.08 in 10.0 mi NNE 15.0 mph - N/A   Mostly Cloudy
11:53 AM 57.2 °F - 50.0 °F 77% 30.08 in 10.0 mi NNE 13.8 mph - N/A   Mostly Cloudy
12:13 PM 59.0 °F - 51.8 °F 77% 30.09 in 10.0 mi NNE 11.5 mph - N/A   Scattered Clouds
12:53 PM 59.0 °F - 51.8 °F 77% 30.08 in 10.0 mi NE 15.0 mph - N/A   Mostly Cloudy
1:13 PM 59.0 °F - 51.8 °F 77% 30.08 in 10.0 mi NE 15.0 mph - N/A   Overcast
1:34 PM 57.2 °F - 50.0 °F 77% 30.08 in 10.0 mi ENE 12.7 mph - N/A   Overcast
1:53 PM 57.2 °F - 50.0 °F 77% 30.08 in 10.0 mi ENE 16.1 mph - N/A   Overcast
2:13 PM 57.2 °F - 50.0 °F 77% 30.09 in 10.0 mi NE 16.1 mph - N/A   Overcast
2:33 PM 57.2 °F - 48.2 °F 72% 30.09 in 10.0 mi NNE 13.8 mph 20.7 mph N/A   Overcast
2:53 PM 57.2 °F - 48.2 °F 72% 30.09 in 10.0 mi NE 13.8 mph - N/A   Overcast
3:13 PM 57.2 °F - 48.2 °F 72% 30.09 in 10.0 mi NE 13.8 mph 18.4 mph N/A   Overcast
3:33 PM 57.2 °F - 48.2 °F 72% 30.09 in 10.0 mi NNE 13.8 mph - N/A   Mostly Cloudy
3:53 PM 59.0 °F - 48.2 °F 67% 30.08 in 10.0 mi NE 11.5 mph - N/A   Mostly Cloudy
4:13 PM 60.8 °F - 48.2 °F 63% 30.08 in 10.0 mi NNE 13.8 mph - N/A   Mostly Cloudy
4:33 PM 59.0 °F - 48.2 °F 67% 30.08 in 10.0 mi NE 10.4 mph - N/A   Overcast
4:53 PM 59.0 °F - 48.2 °F 67% 30.08 in 10.0 mi NE 12.7 mph - N/A   Overcast
5:13 PM 59.0 °F - 48.2 °F 67% 30.08 in 10.0 mi NE 12.7 mph - N/A   Overcast
5:33 PM 57.2 °F - 46.4 °F 67% 30.08 in 10.0 mi ENE 17.3 mph - N/A   Overcast
5:53 PM 57.2 °F - 44.6 °F 63% 30.08 in 10.0 mi East 21.9 mph 25.3 mph N/A   Mostly Cloudy
6:14 PM 55.4 °F - 44.6 °F 67% 30.09 in 10.0 mi ENE 17.3 mph - N/A   Scattered Clouds
6:33 PM 55.4 °F - 44.6 °F 67% 30.09 in 10.0 mi East 20.7 mph - N/A   Scattered Clouds
6:53 PM 53.6 °F - 42.8 °F 67% 30.10 in 10.0 mi ENE 19.6 mph 23.0 mph N/A   Mostly Cloudy
7:14 PM 53.6 °F - 42.8 °F 67% 30.10 in 10.0 mi East 15.0 mph - N/A   Mostly Cloudy
7:33 PM 51.8 °F - 42.8 °F 71% 30.11 in 10.0 mi East 15.0 mph - N/A   Mostly Cloudy
7:53 PM 51.8 °F - 42.8 °F 71% 30.12 in 10.0 mi East 15.0 mph 18.4 mph N/A   Overcast
8:14 PM 50.0 °F - 42.8 °F 76% 30.12 in 10.0 mi East 13.8 mph - N/A   Scattered Clouds
8:33 PM 48.2 °F - 41.0 °F 76% 30.13 in 10.0 mi East 15.0 mph 19.6 mph N/A   Mostly Cloudy
8:53 PM 48.2 °F - 42.8 °F 82% 30.14 in 10.0 mi East 12.7 mph - N/A   Overcast
9:14 PM 48.2 °F - 39.2 °F 71% 30.15 in 10.0 mi East 10.4 mph - N/A   Overcast
9:33 PM 46.4 °F 41.9 °F 39.2 °F 76% 30.15 in 10.0 mi ENE 9.2 mph - N/A   Scattered Clouds
9:53 PM 46.4 °F 41.5 °F 39.2 °F 76% 30.15 in 10.0 mi ENE 10.4 mph - N/A   Scattered Clouds
10:14 PM 46.4 °F 42.9 °F 37.4 °F 71% 30.16 in 10.0 mi ENE 6.9 mph - N/A   Overcast
10:33 PM 46.4 °F 41.9 °F 37.4 °F 71% 30.16 in 10.0 mi ENE 9.2 mph - N/A   Mostly Cloudy
10:53 PM 44.6 °F 40.2 °F 37.4 °F 76% 30.16 in 10.0 mi ENE 8.1 mph - N/A   Scattered Clouds
11:14 PM 44.6 °F 40.2 °F 37.4 °F 76% 30.16 in 10.0 mi ENE 8.1 mph - N/A   Scattered Clouds
11:33 PM 42.8 °F 38.0 °F 37.4 °F 81% 30.16 in 10.0 mi ENE 8.1 mph - N/A   Scattered Clouds